TimeCST,TemperatureF,Dew PointF,Humidity,Sea Level PressureIn,VisibilityMPH,Wind Direction,Wind SpeedMPH,Gust SpeedMPH,PrecipitationIn,Events,Conditions,WindDirDegrees,DateUTC
12:15 AM,15.3,11.3,84,29.88,10.0,SSW,3.5,-,N/A,,Clear,200,2013-02-26 06:15:00
12:35 AM,14.9,11.3,86,29.87,10.0,SSW,4.6,-,N/A,,Clear,210,2013-02-26 06:35:00
12:55 AM,14.5,11.1,86,29.88,10.0,SSW,3.5,-,N/A,,Clear,200,2013-02-26 06:55:00
1:15 AM,14.0,10.2,85,29.89,10.0,South,6.9,-,N/A,,Clear,180,2013-02-26 07:15:00
1:35 AM,13.6,9.9,85,29.89,10.0,South,4.6,-,N/A,,Clear,180,2013-02-26 07:35:00
1:55 AM,13.3,9.5,85,29.89,10.0,SSW,4.6,-,N/A,,Clear,210,2013-02-26 07:55:00
2:15 AM,13.8,10.4,86,29.89,10.0,WSW,5.8,-,N/A,,Clear,250,2013-02-26 08:15:00
2:35 AM,14.9,10.9,84,29.89,10.0,Calm,Calm,-,N/A,,Clear,0,2013-02-26 08:35:00
2:55 AM,15.3,11.5,85,29.88,10.0,Calm,Calm,-,N/A,,Clear,0,2013-02-26 08:55:00
3:15 AM,12.7,8.6,84,29.87,10.0,Calm,Calm,-,N/A,,Clear,0,2013-02-26 09:15:00
3:35 AM,13.8,10.0,85,29.85,10.0,West,3.5,-,N/A,,Clear,260,2013-02-26 09:35:00
3:55 AM,12.0,8.2,85,29.86,10.0,Calm,Calm,-,N/A,,Clear,0,2013-02-26 09:55:00
4:15 AM,11.7,8.2,86,29.86,10.0,Calm,Calm,-,N/A,,Clear,0,2013-02-26 10:15:00
4:35 AM,12.2,8.8,86,29.85,10.0,Calm,Calm,-,N/A,,Clear,0,2013-02-26 10:35:00
4:55 AM,12.2,8.4,85,29.85,10.0,Calm,Calm,-,N/A,,Clear,0,2013-02-26 10:55:00
5:15 AM,10.6,7.2,86,29.84,10.0,Calm,Calm,-,N/A,,Clear,0,2013-02-26 11:15:00
5:35 AM,10.2,6.3,84,29.84,10.0,Calm,Calm,-,N/A,,Clear,0,2013-02-26 11:35:00
5:55 AM,12.2,8.6,85,29.83,10.0,WNW,3.5,-,N/A,,Clear,290,2013-02-26 11:55:00
6:15 AM,9.0,5.4,85,29.83,10.0,Calm,Calm,-,N/A,,Clear,0,2013-02-26 12:15:00
6:35 AM,11.5,8.2,87,29.83,10.0,West,3.5,-,N/A,,Clear,270,2013-02-26 12:35:00
6:55 AM,8.6,4.6,84,29.83,10.0,Calm,Calm,-,N/A,,Clear,0,2013-02-26 12:55:00
7:15 AM,8.6,5.0,85,29.83,10.0,Calm,Calm,-,N/A,,Clear,0,2013-02-26 13:15:00
7:35 AM,8.6,4.8,85,29.83,10.0,Calm,Calm,-,N/A,,Clear,0,2013-02-26 13:35:00
7:55 AM,9.3,5.4,84,29.83,10.0,Calm,Calm,-,N/A,,Clear,0,2013-02-26 13:55:00
8:15 AM,10.2,6.3,84,29.83,10.0,Calm,Calm,-,N/A,,Clear,0,2013-02-26 14:15:00
8:35 AM,11.5,7.9,85,29.83,10.0,Calm,Calm,-,N/A,,Clear,0,2013-02-26 14:35:00
8:55 AM,15.6,13.6,92,29.83,10.0,Calm,Calm,-,N/A,,Clear,0,2013-02-26 14:55:00
9:15 AM,19.0,17.1,92,29.84,10.0,Calm,Calm,-,N/A,,Clear,0,2013-02-26 15:15:00
9:35 AM,21.2,18.3,89,29.85,10.0,Calm,Calm,-,N/A,,Clear,0,2013-02-26 15:35:00
9:55 AM,23.0,19.6,87,29.85,10.0,Calm,Calm,-,N/A,,Clear,0,2013-02-26 15:55:00
10:15 AM,25.2,20.7,83,29.86,10.0,Calm,Calm,-,N/A,,Clear,0,2013-02-26 16:15:00
10:35 AM,26.8,21.4,80,29.87,10.0,Calm,Calm,-,N/A,,Clear,0,2013-02-26 16:35:00
10:55 AM,27.1,20.3,75,29.86,10.0,Calm,Calm,-,N/A,,Clear,0,2013-02-26 16:55:00
11:15 AM,27.0,20.5,77,29.85,10.0,Calm,Calm,-,N/A,,Clear,0,2013-02-26 17:15:00
11:35 AM,27.3,21.0,77,29.86,10.0,Calm,Calm,-,N/A,,Clear,0,2013-02-26 17:35:00
11:55 AM,28.8,22.6,78,29.86,10.0,Calm,Calm,-,N/A,,Clear,0,2013-02-26 17:55:00
12:15 PM,29.1,22.6,77,29.87,10.0,Calm,Calm,-,N/A,,Clear,0,2013-02-26 18:15:00
12:35 PM,30.7,23.5,75,29.85,10.0,North,3.5,-,N/A,,Clear,350,2013-02-26 18:35:00
12:55 PM,31.6,23.7,73,29.84,10.0,Calm,Calm,-,N/A,,Clear,0,2013-02-26 18:55:00
1:15 PM,32.5,24.3,72,29.84,10.0,Calm,Calm,-,N/A,,Clear,0,2013-02-26 19:15:00
1:35 PM,33.4,24.4,70,29.84,10.0,NNE,4.6,-,N/A,,Clear,20,2013-02-26 19:35:00
1:55 PM,33.6,23.5,67,29.84,10.0,ENE,6.9,-,N/A,,Clear,60,2013-02-26 19:55:00
2:15 PM,33.4,19.4,56,29.84,10.0,ENE,5.8,-,N/A,,Clear,60,2013-02-26 20:15:00
2:35 PM,33.4,21.0,60,29.84,10.0,NE,6.9,-,N/A,,Clear,40,2013-02-26 20:35:00
2:55 PM,32.9,21.7,64,29.84,10.0,ENE,6.9,-,N/A,,Clear,60,2013-02-26 20:55:00
3:15 PM,32.5,21.9,65,29.84,10.0,NE,8.1,-,N/A,,Clear,50,2013-02-26 21:15:00
3:35 PM,32.7,21.0,62,29.84,10.0,NE,11.5,-,N/A,,Clear,50,2013-02-26 21:35:00
3:55 PM,31.8,22.1,67,29.85,10.0,NE,9.2,-,N/A,,Clear,50,2013-02-26 21:55:00
4:15 PM,30.9,19.6,63,29.86,10.0,NE,9.2,-,N/A,,Clear,50,2013-02-26 22:15:00
4:35 PM,30.4,21.6,70,29.87,10.0,NE,3.5,-,N/A,,Clear,40,2013-02-26 22:35:00
4:55 PM,30.2,22.8,74,29.87,10.0,NE,5.8,-,N/A,,Clear,40,2013-02-26 22:55:00
5:15 PM,30.0,23.7,77,29.87,10.0,NNE,4.6,-,N/A,,Clear,20,2013-02-26 23:15:00
5:35 PM,29.7,24.4,81,29.88,10.0,North,8.1,-,N/A,,Clear,10,2013-02-26 23:35:00
5:55 PM,28.9,23.4,80,29.89,10.0,NE,6.9,-,N/A,,Clear,40,2013-02-26 23:55:00
6:15 PM,27.7,22.8,82,29.90,10.0,NE,4.6,-,N/A,,Clear,40,2013-02-27 00:15:00
6:35 PM,27.3,23.0,84,29.90,10.0,North,4.6,-,N/A,,Clear,10,2013-02-27 00:35:00
6:55 PM,26.6,23.0,86,29.92,10.0,Calm,Calm,-,N/A,,Clear,0,2013-02-27 00:55:00
7:15 PM,26.2,22.5,86,29.93,10.0,Calm,Calm,-,N/A,,Clear,0,2013-02-27 01:15:00
7:35 PM,24.8,22.1,89,29.94,10.0,Calm,Calm,-,N/A,,Clear,0,2013-02-27 01:35:00
7:55 PM,25.7,23.0,89,29.94,10.0,North,5.8,-,N/A,,Clear,350,2013-02-27 01:55:00
8:15 PM,25.5,22.6,89,29.94,10.0,North,6.9,-,N/A,,Clear,350,2013-02-27 02:15:00
8:35 PM,25.5,22.6,89,29.94,10.0,NNW,8.1,-,N/A,,Clear,330,2013-02-27 02:35:00
8:55 PM,24.8,22.5,91,29.94,10.0,NNW,5.8,-,N/A,,Clear,340,2013-02-27 02:55:00
9:15 PM,25.5,22.6,89,29.95,10.0,NNW,5.8,-,N/A,,Clear,340,2013-02-27 03:15:00
9:35 PM,25.0,22.1,89,29.96,10.0,NNW,5.8,-,N/A,,Clear,340,2013-02-27 03:35:00
9:55 PM,24.4,21.9,90,29.96,10.0,NNW,4.6,-,N/A,,Clear,330,2013-02-27 03:55:00
10:15 PM,24.8,21.9,89,29.96,10.0,NW,5.8,-,N/A,,Clear,320,2013-02-27 04:15:00
10:35 PM,24.8,23.0,93,29.97,10.0,NNW,5.8,-,N/A,,Clear,330,2013-02-27 04:35:00
10:55 PM,24.8,22.1,89,29.97,10.0,NW,6.9,-,N/A,,Clear,320,2013-02-27 04:55:00
11:15 PM,25.2,22.6,90,29.97,10.0,NW,8.1,-,N/A,,Clear,320,2013-02-27 05:15:00
11:35 PM,25.2,22.6,90,29.97,10.0,NW,8.1,-,N/A,,Clear,320,2013-02-27 05:35:00
11:55 PM,25.3,23.0,91,29.98,10.0,NW,9.2,-,N/A,,Clear,320,2013-02-27 05:55:00